Radiation Dose at Monitoring Post of Fukushima Daini Nuclear Power Station
Date,Time,MP-1(microSv/h),MP-2(microSv/h),MP-3(microSv/h),MP-4(microSv/h),MP-5(microSv/h),MP-6(microSv/h),MP-7(microSv/h),Wind Direction,Wind Velocity(m/s),Rain
2015/06/24,00:00,0.508,0.298,0.525,0.477,0.460,0.237,0.206,southwest,2.3,No
2015/06/24,00:10,0.511,0.295,0.529,0.474,0.461,0.236,0.206,south-southwest,2.2,No
2015/06/24,00:20,0.506,0.298,0.527,0.479,0.461,0.236,0.206,southwest,1.6,No
2015/06/24,00:30,0.512,0.296,0.526,0.474,0.461,0.235,0.207,southwest,1.6,No
2015/06/24,00:40,0.506,0.298,0.528,0.478,0.459,0.236,0.206,west-southwest,0.8,No
2015/06/24,00:50,0.512,0.296,0.528,0.474,0.462,0.237,0.207,west-southwest,0.5,No
2015/06/24,01:00,0.508,0.298,0.530,0.475,0.458,0.236,0.206,-,CALM,No
2015/06/24,01:10,0.510,0.296,0.525,0.477,0.462,0.236,0.206,-,CALM,No
2015/06/24,01:20,0.509,0.298,0.531,0.476,0.459,0.235,0.207,-,CALM,No
2015/06/24,01:30,0.510,0.296,0.523,0.476,0.463,0.236,0.206,north-northeast,0.7,No
2015/06/24,01:40,0.510,0.297,0.529,0.475,0.456,0.235,0.208,north,1.2,No
2015/06/24,01:50,0.508,0.295,0.524,0.478,0.463,0.236,0.206,north,1.4,No
2015/06/24,02:00,0.511,0.298,0.530,0.473,0.459,0.236,0.206,north-northwest,1.4,No
2015/06/24,02:10,0.507,0.296,0.525,0.477,0.462,0.236,0.206,north,2.1,No
2015/06/24,02:20,0.511,0.298,0.529,0.475,0.458,0.235,0.207,north,1.7,No
2015/06/24,02:30,0.507,0.295,0.525,0.477,0.461,0.236,0.207,north,1.4,No
2015/06/24,02:40,0.512,0.297,0.528,0.474,0.458,0.236,0.207,north-northeast,1.9,No
2015/06/24,02:50,0.509,0.295,0.529,0.477,0.461,0.236,0.206,north-northeast,2.5,No
2015/06/24,03:00,0.512,0.298,0.527,0.476,0.458,0.236,0.207,north,2.7,No
2015/06/24,03:10,0.509,0.295,0.526,0.479,0.460,0.235,0.207,north,2.2,No
2015/06/24,03:20,0.511,0.297,0.527,0.474,0.458,0.235,0.206,north,1.4,No
2015/06/24,03:30,0.510,0.295,0.527,0.477,0.460,0.236,0.207,north,1.6,No
2015/06/24,03:40,0.512,0.298,0.525,0.474,0.459,0.236,0.206,north,1.9,No
2015/06/24,03:50,0.511,0.296,0.529,0.478,0.459,0.236,0.208,north,2.6,No
2015/06/24,04:00,0.508,0.298,0.525,0.475,0.459,0.235,0.207,north,3.1,No
2015/06/24,04:10,0.511,0.299,0.529,0.478,0.462,0.236,0.207,north,3.6,No
2015/06/24,04:20,0.510,0.298,0.524,0.474,0.459,0.237,0.208,north,4.2,No
2015/06/24,04:30,0.511,0.296,0.530,0.478,0.462,0.236,0.207,north,4.2,No
2015/06/24,04:40,0.510,0.298,0.524,0.475,0.461,0.236,0.207,north,3.2,No
2015/06/24,04:50,0.511,0.298,0.530,0.478,0.460,0.236,0.207,north,3.0,No
2015/06/24,05:00,0.509,0.298,0.526,0.474,0.460,0.237,0.206,north,4.5,No
2015/06/24,05:10,0.512,0.298,0.530,0.478,0.460,0.235,0.208,north,6.2,No
2015/06/24,05:20,0.508,0.296,0.526,0.473,0.460,0.236,0.206,north,6.4,No
2015/06/24,05:30,0.512,0.297,0.528,0.478,0.459,0.237,0.207,north,6.7,No
2015/06/24,05:40,0.507,0.298,0.526,0.472,0.461,0.235,0.207,north,7.2,No
2015/06/24,05:50,0.513,0.296,0.527,0.479,0.456,0.236,0.207,north,6.9,No
2015/06/24,06:00,0.508,0.298,0.527,0.473,0.463,0.236,0.206,north,6.5,No
2015/06/24,06:10,0.512,0.295,0.525,0.478,0.458,0.236,0.207,north,6.3,No
2015/06/24,06:20,0.509,0.299,0.529,0.475,0.461,0.237,0.207,north,6.3,No
2015/06/24,06:30,0.509,0.297,0.523,0.473,0.459,0.234,0.205,north,5.4,No
2015/06/24,06:40,0.510,0.296,0.528,0.478,0.458,0.236,0.206,north,4.0,No
2015/06/24,06:50,0.505,0.298,0.525,0.472,0.461,0.234,0.205,north,4.0,No
2015/06/24,07:00,0.514,0.296,0.523,0.476,0.456,0.235,0.207,north,3.3,No
2015/06/24,07:10,0.507,0.297,0.529,0.474,0.461,0.236,0.206,north,3.9,No
2015/06/24,07:20,0.508,0.296,0.521,0.470,0.459,0.234,0.204,north,4.3,No
2015/06/24,07:30,0.511,0.296,0.528,0.477,0.456,0.235,0.207,north-northeast,2.9,No
2015/06/24,07:40,0.507,0.299,0.527,0.472,0.464,0.235,0.206,north,3.6,No
2015/06/24,07:50,0.511,0.296,0.521,0.473,0.458,0.233,0.206,north-northeast,3.9,No
2015/06/24,08:00,0.512,0.296,0.529,0.476,0.458,0.236,0.205,north,2.9,No
2015/06/24,08:10,0.506,0.299,0.529,0.472,0.464,0.235,0.205,north-northeast,2.2,No
2015/06/24,08:20,0.512,0.296,0.522,0.475,0.457,0.234,0.205,northeast,1.6,No
2015/06/24,08:30,0.511,0.296,0.528,0.476,0.454,0.234,0.207,northeast,1.6,No
2015/06/24,08:40,0.506,0.299,0.529,0.472,0.463,0.235,0.206,northeast,2.2,No
2015/06/24,08:50,0.505,0.298,0.523,0.469,0.460,0.235,0.206,north-northeast,1.5,No
2015/06/24,09:00,0.512,0.296,0.521,0.474,0.457,0.235,0.204,northeast,1.9,No
2015/06/24,09:10,0.511,0.295,0.521,0.476,0.457,0.234,0.204,east-northeast,1.6,No
2015/06/24,09:20,0.509,0.295,0.518,0.475,0.455,0.237,0.204,east,1.6,No
2015/06/24,09:30,0.506,0.295,0.527,0.473,0.456,0.236,0.205,east,1.6,No
2015/06/24,09:40,0.504,0.295,0.529,0.473,0.453,0.234,0.204,east,2.0,No
2015/06/24,09:50,0.505,0.299,0.526,0.469,0.463,0.235,0.206,southeast,1.9,No
2015/06/24,10:00,0.506,0.299,0.522,0.471,0.464,0.236,0.205,east-southeast,1.6,No
2015/06/24,10:10,0.513,0.298,0.528,0.470,0.461,0.236,0.204,east,1.9,No
2015/06/24,10:20,0.514,0.296,0.530,0.468,0.459,0.236,0.204,east-southeast,1.3,No
2015/06/24,10:30,0.513,0.296,0.531,0.470,0.458,0.236,0.206,southeast,1.7,No
2015/06/24,10:40,0.509,0.296,0.525,0.473,0.457,0.237,0.205,east-southeast,1.5,No
2015/06/24,10:50,0.507,0.296,0.523,0.474,0.456,0.238,0.206,east,1.4,No
2015/06/24,11:00,0.508,0.299,0.525,0.476,0.459,0.237,0.205,east-northeast,0.9,No
2015/06/24,11:10,0.506,0.301,0.524,0.476,0.465,0.236,0.206,northeast,1.3,No
2015/06/24,11:20,0.506,0.299,0.524,0.476,0.464,0.237,0.207,northeast,0.8,No
2015/06/24,11:30,0.508,0.299,0.527,0.476,0.463,0.237,0.207,-,CALM,No
2015/06/24,11:40,0.508,0.298,0.525,0.474,0.461,0.236,0.209,-,CALM,No
2015/06/24,11:50,0.511,0.298,0.527,0.475,0.460,0.236,0.208,-,CALM,No
2015/06/24,12:00,0.516,0.297,0.528,0.479,0.461,0.238,0.209,north-northeast,1.5,No
2015/06/24,12:10,0.515,0.297,0.528,0.479,0.460,0.236,0.208,northeast,1.6,No
2015/06/24,12:20,0.514,0.299,0.529,0.479,0.461,0.235,0.207,east-northeast,1.8,No
2015/06/24,12:30,0.511,0.301,0.528,0.479,0.461,0.237,0.206,east-northeast,2.2,No
2015/06/24,12:40,0.510,0.302,0.529,0.480,0.461,0.236,0.207,east-northeast,1.8,No
2015/06/24,12:50,0.508,0.300,0.528,0.481,0.461,0.237,0.207,-,CALM,No
2015/06/24,13:00,0.509,0.300,0.529,0.478,0.461,0.237,0.207,east-northeast,2.2,No
2015/06/24,13:10,0.517,0.299,0.531,0.480,0.461,0.236,0.207,east-northeast,2.2,No
2015/06/24,13:20,0.516,0.298,0.529,0.479,0.462,0.237,0.206,east-northeast,2.0,No
2015/06/24,13:30,0.514,0.298,0.530,0.478,0.462,0.238,0.207,east-northeast,1.9,No
2015/06/24,13:40,0.511,0.296,0.529,0.479,0.461,0.239,0.207,east-northeast,2.8,No
2015/06/24,13:50,0.510,0.299,0.529,0.478,0.462,0.237,0.206,east-northeast,2.5,No
2015/06/24,14:00,0.514,0.302,0.529,0.478,0.463,0.238,0.207,east-northeast,2.9,No
2015/06/24,14:10,0.516,0.303,0.530,0.477,0.464,0.240,0.209,east-northeast,3.0,No
2015/06/24,14:20,0.514,0.301,0.531,0.479,0.462,0.238,0.209,east-northeast,2.2,No
2015/06/24,14:30,0.512,0.299,0.530,0.477,0.465,0.239,0.209,northeast,2.0,No
2015/06/24,14:40,0.511,0.298,0.529,0.478,0.463,0.238,0.208,east-northeast,1.3,No
2015/06/24,14:50,0.510,0.300,0.530,0.477,0.463,0.238,0.208,east-northeast,1.4,No
2015/06/24,15:00,0.512,0.298,0.529,0.483,0.462,0.238,0.207,east,1.8,No
2015/06/24,15:10,0.521,0.298,0.528,0.486,0.461,0.238,0.209,east-northeast,1.9,No
2015/06/24,15:20,0.516,0.302,0.528,0.484,0.463,0.240,0.209,east,1.6,No
2015/06/24,15:30,0.511,0.302,0.527,0.480,0.462,0.239,0.208,east,1.6,No
2015/06/24,15:40,0.515,0.299,0.529,0.484,0.461,0.240,0.207,southeast,1.0,No
2015/06/24,15:50,0.521,0.298,0.533,0.487,0.461,0.238,0.207,south-southeast,0.8,No
2015/06/24,16:00,0.515,0.304,0.536,0.481,0.462,0.238,0.210,south,1.9,No
2015/06/24,16:10,0.511,0.302,0.533,0.477,0.461,0.239,0.209,south,2.3,No
2015/06/24,16:20,0.513,0.299,0.530,0.486,0.462,0.239,0.209,south,3.1,No
2015/06/24,16:30,0.518,0.301,0.536,0.483,0.462,0.237,0.210,south,3.1,No
2015/06/24,16:40,0.515,0.303,0.540,0.479,0.461,0.240,0.209,south,3.0,No
2015/06/24,16:50,0.509,0.302,0.532,0.483,0.460,0.239,0.208,south,2.8,No
2015/06/24,17:00,0.513,0.301,0.531,0.485,0.463,0.238,0.210,south,2.2,No
2015/06/24,17:10,0.519,0.302,0.538,0.478,0.462,0.238,0.209,south,2.9,No
2015/06/24,17:20,0.517,0.301,0.531,0.483,0.469,0.239,0.208,south,2.7,No
2015/06/24,17:30,0.512,0.302,0.529,0.486,0.469,0.238,0.210,south,3.6,No
2015/06/24,17:40,0.515,0.304,0.538,0.478,0.467,0.237,0.209,south,3.3,No
2015/06/24,17:50,0.519,0.300,0.535,0.483,0.463,0.239,0.209,south-southeast,2.8,No
2015/06/24,18:00,0.513,0.303,0.530,0.485,0.461,0.238,0.209,south,3.2,No
2015/06/24,18:10,0.515,0.302,0.537,0.478,0.469,0.237,0.209,south-southeast,2.2,No
2015/06/24,18:20,0.519,0.300,0.536,0.485,0.469,0.238,0.210,south-southeast,1.8,No
2015/06/24,18:30,0.513,0.303,0.531,0.484,0.464,0.237,0.209,south,3.0,No
2015/06/24,18:40,0.515,0.303,0.539,0.479,0.468,0.240,0.210,south,3.1,No
2015/06/24,18:50,0.518,0.300,0.533,0.486,0.469,0.237,0.209,south,1.9,No
2015/06/24,19:00,0.514,0.303,0.533,0.482,0.464,0.237,0.209,south,2.3,No
2015/06/24,19:10,0.518,0.301,0.537,0.481,0.471,0.238,0.210,south,2.5,No
2015/06/24,19:20,0.518,0.301,0.532,0.486,0.465,0.236,0.207,south,2.3,No
2015/06/24,19:30,0.512,0.301,0.532,0.479,0.463,0.238,0.210,south,2.0,No
2015/06/24,19:40,0.520,0.300,0.535,0.483,0.468,0.239,0.209,south,1.7,No
2015/06/24,19:50,0.516,0.302,0.528,0.485,0.463,0.237,0.210,south,1.2,No
2015/06/24,20:00,0.513,0.299,0.535,0.478,0.462,0.239,0.208,south,1.4,No
2015/06/24,20:10,0.518,0.301,0.536,0.484,0.471,0.238,0.209,south,1.0,No
2015/06/24,20:20,0.515,0.302,0.530,0.484,0.463,0.238,0.209,south-southwest,0.7,No
2015/06/24,20:30,0.511,0.300,0.538,0.480,0.463,0.238,0.208,-,CALM,No
2015/06/24,20:40,0.519,0.302,0.536,0.486,0.470,0.238,0.209,-,CALM,No
2015/06/24,20:50,0.515,0.302,0.529,0.483,0.463,0.239,0.210,northwest,0.5,No
2015/06/24,21:00,0.513,0.301,0.536,0.478,0.463,0.237,0.209,-,CALM,No
2015/06/24,21:10,0.520,0.302,0.532,0.484,0.469,0.238,0.209,-,CALM,No
2015/06/24,21:20,0.514,0.301,0.529,0.483,0.464,0.238,0.209,-,CALM,No
2015/06/24,21:30,0.513,0.301,0.538,0.478,0.464,0.237,0.208,northeast,0.8,No
2015/06/24,21:40,0.517,0.302,0.535,0.485,0.468,0.239,0.210,-,CALM,No
2015/06/24,21:50,0.511,0.300,0.530,0.480,0.461,0.237,0.208,-,CALM,No
2015/06/24,22:00,0.517,0.302,0.537,0.480,0.465,0.237,0.209,-,CALM,No
2015/06/24,22:10,0.517,0.303,0.531,0.486,0.466,0.239,0.210,-,CALM,No
2015/06/24,22:20,0.511,0.301,0.532,0.479,0.461,0.237,0.208,-,CALM,No
2015/06/24,22:30,0.520,0.303,0.537,0.484,0.465,0.237,0.208,north-northwest,0.5,No
2015/06/24,22:40,0.517,0.301,0.531,0.482,0.466,0.239,0.209,-,CALM,No
2015/06/24,22:50,0.513,0.301,0.535,0.481,0.460,0.238,0.208,-,CALM,No
2015/06/24,23:00,0.517,0.303,0.536,0.486,0.468,0.239,0.209,-,CALM,No
2015/06/24,23:10,0.513,0.300,0.529,0.482,0.464,0.238,0.208,-,CALM,No
2015/06/24,23:20,0.516,0.303,0.537,0.481,0.464,0.239,0.210,-,CALM,No
2015/06/24,23:30,0.518,0.301,0.533,0.485,0.466,0.239,0.208,north-northeast,0.8,No
2015/06/24,23:40,0.513,0.302,0.532,0.479,0.463,0.239,0.209,north-northwest,0.8,No
2015/06/24,23:50,0.518,0.304,0.539,0.484,0.467,0.239,0.209,north-northwest,0.9,No
